Index of /20260503/WXO-DD/model_rdps/10km/06/028
Name Last modified Size Description
Parent Directory -
20260503T06Z_MSC_RDPS_AbsoluteVorticity_IsbL-0250_RLatLon0.09_PT028H.grib2 2026-05-03 08:52 622K
20260503T06Z_MSC_RDPS_AbsoluteVorticity_IsbL-0500_RLatLon0.09_PT028H.grib2 2026-05-03 08:52 581K
20260503T06Z_MSC_RDPS_AbsoluteVorticity_IsbL-0700_RLatLon0.09_PT028H.grib2 2026-05-03 08:52 623K
20260503T06Z_MSC_RDPS_AbsoluteVorticity_IsbL-0850_RLatLon0.09_PT028H.grib2 2026-05-03 08:52 802K
20260503T06Z_MSC_RDPS_AirTemp_AGL-120m_RLatLon0.09_PT028H.grib2 2026-05-03 08:52 381K
20260503T06Z_MSC_RDPS_AirTemp_AGL-2m_RLatLon0.09_PT028H.grib2 2026-05-03 08:52 642K
20260503T06Z_MSC_RDPS_AirTemp_AGL-40m_RLatLon0.09_PT028H.grib2 2026-05-03 08:52 412K
20260503T06Z_MSC_RDPS_AirTemp_AGL-80m_RLatLon0.09_PT028H.grib2 2026-05-03 08:52 387K
20260503T06Z_MSC_RDPS_AirTemp_IsbL-0001_RLatLon0.09_PT028H.grib2 2026-05-03 08:52 303K
20260503T06Z_MSC_RDPS_AirTemp_IsbL-0005_RLatLon0.09_PT028H.grib2 2026-05-03 08:52 288K
20260503T06Z_MSC_RDPS_AirTemp_IsbL-0010_RLatLon0.09_PT028H.grib2 2026-05-03 08:52 300K
20260503T06Z_MSC_RDPS_AirTemp_IsbL-0020_RLatLon0.09_PT028H.grib2 2026-05-03 08:52 415K
20260503T06Z_MSC_RDPS_AirTemp_IsbL-0030_RLatLon0.09_PT028H.grib2 2026-05-03 08:52 339K
20260503T06Z_MSC_RDPS_AirTemp_IsbL-0050_RLatLon0.09_PT028H.grib2 2026-05-03 08:52 319K
20260503T06Z_MSC_RDPS_AirTemp_IsbL-0100_RLatLon0.09_PT028H.grib2 2026-05-03 08:52 431K
20260503T06Z_MSC_RDPS_AirTemp_IsbL-0150_RLatLon0.09_PT028H.grib2 2026-05-03 08:52 424K
20260503T06Z_MSC_RDPS_AirTemp_IsbL-0175_RLatLon0.09_PT028H.grib2 2026-05-03 08:52 413K
20260503T06Z_MSC_RDPS_AirTemp_IsbL-0200_RLatLon0.09_PT028H.grib2 2026-05-03 08:52 418K
20260503T06Z_MSC_RDPS_AirTemp_IsbL-0225_RLatLon0.09_PT028H.grib2 2026-05-03 08:52 424K
20260503T06Z_MSC_RDPS_AirTemp_IsbL-0250_RLatLon0.09_PT028H.grib2 2026-05-03 08:52 430K
20260503T06Z_MSC_RDPS_AirTemp_IsbL-0275_RLatLon0.09_PT028H.grib2 2026-05-03 08:52 409K
20260503T06Z_MSC_RDPS_AirTemp_IsbL-0300_RLatLon0.09_PT028H.grib2 2026-05-03 08:52 415K
20260503T06Z_MSC_RDPS_AirTemp_IsbL-0350_RLatLon0.09_PT028H.grib2 2026-05-03 08:52 431K
20260503T06Z_MSC_RDPS_AirTemp_IsbL-0400_RLatLon0.09_PT028H.grib2 2026-05-03 08:52 435K
20260503T06Z_MSC_RDPS_AirTemp_IsbL-0450_RLatLon0.09_PT028H.grib2 2026-05-03 08:52 443K
20260503T06Z_MSC_RDPS_AirTemp_IsbL-0500_RLatLon0.09_PT028H.grib2 2026-05-03 08:52 454K
20260503T06Z_MSC_RDPS_AirTemp_IsbL-0550_RLatLon0.09_PT028H.grib2 2026-05-03 08:52 471K
20260503T06Z_MSC_RDPS_AirTemp_IsbL-0600_RLatLon0.09_PT028H.grib2 2026-05-03 08:52 450K
20260503T06Z_MSC_RDPS_AirTemp_IsbL-0650_RLatLon0.09_PT028H.grib2 2026-05-03 08:52 465K
20260503T06Z_MSC_RDPS_AirTemp_IsbL-0700_RLatLon0.09_PT028H.grib2 2026-05-03 08:52 380K
20260503T06Z_MSC_RDPS_AirTemp_IsbL-0750_RLatLon0.09_PT028H.grib2 2026-05-03 08:52 415K
20260503T06Z_MSC_RDPS_AirTemp_IsbL-0800_RLatLon0.09_PT028H.grib2 2026-05-03 08:52 587K
20260503T06Z_MSC_RDPS_AirTemp_IsbL-0850_RLatLon0.09_PT028H.grib2 2026-05-03 08:52 650K
20260503T06Z_MSC_RDPS_AirTemp_IsbL-0875_RLatLon0.09_PT028H.grib2 2026-05-03 08:52 666K
20260503T06Z_MSC_RDPS_AirTemp_IsbL-0900_RLatLon0.09_PT028H.grib2 2026-05-03 08:52 538K
20260503T06Z_MSC_RDPS_AirTemp_IsbL-0925_RLatLon0.09_PT028H.grib2 2026-05-03 08:52 530K
20260503T06Z_MSC_RDPS_AirTemp_IsbL-0950_RLatLon0.09_PT028H.grib2 2026-05-03 08:52 530K
20260503T06Z_MSC_RDPS_AirTemp_IsbL-0970_RLatLon0.09_PT028H.grib2 2026-05-03 08:52 523K
20260503T06Z_MSC_RDPS_AirTemp_IsbL-0985_RLatLon0.09_PT028H.grib2 2026-05-03 08:52 511K
20260503T06Z_MSC_RDPS_AirTemp_IsbL-1000_RLatLon0.09_PT028H.grib2 2026-05-03 08:52 498K
20260503T06Z_MSC_RDPS_AirTemp_IsbL-1015_RLatLon0.09_PT028H.grib2 2026-05-03 08:52 500K
20260503T06Z_MSC_RDPS_Albedo_Sfc_RLatLon0.09_PT028H.grib2 2026-05-03 08:52 157K
20260503T06Z_MSC_RDPS_CAPE_Sfc_RLatLon0.09_PT028H.grib2 2026-05-03 08:52 1.6M
20260503T06Z_MSC_RDPS_CIN_Sfc_RLatLon0.09_PT028H.grib2 2026-05-03 08:52 1.1M
20260503T06Z_MSC_RDPS_CloudWater_EAtm_RLatLon0.09_PT028H.grib2 2026-05-03 08:52 222K
20260503T06Z_MSC_RDPS_ConvectivePrecip-Accum_Sfc_RLatLon0.09_PT028H.grib2 2026-05-03 08:52 933K
20260503T06Z_MSC_RDPS_DewPointDepression_AGL-2m_RLatLon0.09_PT028H.grib2 2026-05-03 08:52 401K
20260503T06Z_MSC_RDPS_DewPointDepression_IsbL-0001_RLatLon0.09_PT028H.grib2 2026-05-03 08:52 193
20260503T06Z_MSC_RDPS_DewPointDepression_IsbL-0005_RLatLon0.09_PT028H.grib2 2026-05-03 08:52 193
20260503T06Z_MSC_RDPS_DewPointDepression_IsbL-0010_RLatLon0.09_PT028H.grib2 2026-05-03 08:52 193
20260503T06Z_MSC_RDPS_DewPointDepression_IsbL-0020_RLatLon0.09_PT028H.grib2 2026-05-03 08:52 193
20260503T06Z_MSC_RDPS_DewPointDepression_IsbL-0030_RLatLon0.09_PT028H.grib2 2026-05-03 08:52 193
20260503T06Z_MSC_RDPS_DewPointDepression_IsbL-0050_RLatLon0.09_PT028H.grib2 2026-05-03 08:52 87K
20260503T06Z_MSC_RDPS_DewPointDepression_IsbL-0100_RLatLon0.09_PT028H.grib2 2026-05-03 08:52 120K
20260503T06Z_MSC_RDPS_DewPointDepression_IsbL-0150_RLatLon0.09_PT028H.grib2 2026-05-03 08:52 141K
20260503T06Z_MSC_RDPS_DewPointDepression_IsbL-0175_RLatLon0.09_PT028H.grib2 2026-05-03 08:52 175K
20260503T06Z_MSC_RDPS_DewPointDepression_IsbL-0200_RLatLon0.09_PT028H.grib2 2026-05-03 08:52 219K
20260503T06Z_MSC_RDPS_DewPointDepression_IsbL-0225_RLatLon0.09_PT028H.grib2 2026-05-03 08:52 263K
20260503T06Z_MSC_RDPS_DewPointDepression_IsbL-0250_RLatLon0.09_PT028H.grib2 2026-05-03 08:52 304K
20260503T06Z_MSC_RDPS_DewPointDepression_IsbL-0275_RLatLon0.09_PT028H.grib2 2026-05-03 08:52 312K
20260503T06Z_MSC_RDPS_DewPointDepression_IsbL-0300_RLatLon0.09_PT028H.grib2 2026-05-03 08:52 330K
20260503T06Z_MSC_RDPS_DewPointDepression_IsbL-0350_RLatLon0.09_PT028H.grib2 2026-05-03 08:52 339K
20260503T06Z_MSC_RDPS_DewPointDepression_IsbL-0400_RLatLon0.09_PT028H.grib2 2026-05-03 08:52 345K
20260503T06Z_MSC_RDPS_DewPointDepression_IsbL-0450_RLatLon0.09_PT028H.grib2 2026-05-03 08:52 346K
20260503T06Z_MSC_RDPS_DewPointDepression_IsbL-0500_RLatLon0.09_PT028H.grib2 2026-05-03 08:52 350K
20260503T06Z_MSC_RDPS_DewPointDepression_IsbL-0550_RLatLon0.09_PT028H.grib2 2026-05-03 08:52 358K
20260503T06Z_MSC_RDPS_DewPointDepression_IsbL-0600_RLatLon0.09_PT028H.grib2 2026-05-03 08:52 371K
20260503T06Z_MSC_RDPS_DewPointDepression_IsbL-0650_RLatLon0.09_PT028H.grib2 2026-05-03 08:52 380K
20260503T06Z_MSC_RDPS_DewPointDepression_IsbL-0700_RLatLon0.09_PT028H.grib2 2026-05-03 08:52 387K
20260503T06Z_MSC_RDPS_DewPointDepression_IsbL-0750_RLatLon0.09_PT028H.grib2 2026-05-03 08:52 406K
20260503T06Z_MSC_RDPS_DewPointDepression_IsbL-0800_RLatLon0.09_PT028H.grib2 2026-05-03 08:52 447K
20260503T06Z_MSC_RDPS_DewPointDepression_IsbL-0850_RLatLon0.09_PT028H.grib2 2026-05-03 08:52 479K
20260503T06Z_MSC_RDPS_DewPointDepression_IsbL-0875_RLatLon0.09_PT028H.grib2 2026-05-03 08:52 475K
20260503T06Z_MSC_RDPS_DewPointDepression_IsbL-0900_RLatLon0.09_PT028H.grib2 2026-05-03 08:52 461K
20260503T06Z_MSC_RDPS_DewPointDepression_IsbL-0925_RLatLon0.09_PT028H.grib2 2026-05-03 08:52 446K
20260503T06Z_MSC_RDPS_DewPointDepression_IsbL-0950_RLatLon0.09_PT028H.grib2 2026-05-03 08:52 442K
20260503T06Z_MSC_RDPS_DewPointDepression_IsbL-0970_RLatLon0.09_PT028H.grib2 2026-05-03 08:52 437K
20260503T06Z_MSC_RDPS_DewPointDepression_IsbL-0985_RLatLon0.09_PT028H.grib2 2026-05-03 08:52 433K
20260503T06Z_MSC_RDPS_DewPointDepression_IsbL-1000_RLatLon0.09_PT028H.grib2 2026-05-03 08:52 430K
20260503T06Z_MSC_RDPS_DewPointDepression_IsbL-1015_RLatLon0.09_PT028H.grib2 2026-05-03 08:52 422K
20260503T06Z_MSC_RDPS_DewPoint_AGL-2m_RLatLon0.09_PT028H.grib2 2026-05-03 08:52 310K
20260503T06Z_MSC_RDPS_DownwardLongwaveRadiationFlux-Accum_Sfc_RLatLon0.09_PT028H.grib2 2026-05-03 08:52 470K
20260503T06Z_MSC_RDPS_DownwardShortwaveRadiationFlux-Accum_NTAtm_RLatLon0.09_PT028H.grib2 2026-05-03 08:52 145K
20260503T06Z_MSC_RDPS_DownwardShortwaveRadiationFlux-Accum_Sfc_RLatLon0.09_PT028H.grib2 2026-05-03 08:52 652K
20260503T06Z_MSC_RDPS_FreezingRain-Accum1h_Sfc_RLatLon0.09_PT028H.grib2 2026-05-03 08:52 43K
20260503T06Z_MSC_RDPS_FreezingRain-Accum_Sfc_RLatLon0.09_PT028H.grib2 2026-05-03 08:52 123K
20260503T06Z_MSC_RDPS_GeopotentialHeight_IsbL-0001_RLatLon0.09_PT028H.grib2 2026-05-03 08:52 319K
20260503T06Z_MSC_RDPS_GeopotentialHeight_IsbL-0005_RLatLon0.09_PT028H.grib2 2026-05-03 08:52 311K
20260503T06Z_MSC_RDPS_GeopotentialHeight_IsbL-0010_RLatLon0.09_PT028H.grib2 2026-05-03 08:52 312K
20260503T06Z_MSC_RDPS_GeopotentialHeight_IsbL-0020_RLatLon0.09_PT028H.grib2 2026-05-03 08:52 411K
20260503T06Z_MSC_RDPS_GeopotentialHeight_IsbL-0030_RLatLon0.09_PT028H.grib2 2026-05-03 08:52 413K
20260503T06Z_MSC_RDPS_GeopotentialHeight_IsbL-0050_RLatLon0.09_PT028H.grib2 2026-05-03 08:52 317K
20260503T06Z_MSC_RDPS_GeopotentialHeight_IsbL-0100_RLatLon0.09_PT028H.grib2 2026-05-03 08:52 292K
20260503T06Z_MSC_RDPS_GeopotentialHeight_IsbL-0150_RLatLon0.09_PT028H.grib2 2026-05-03 08:52 233K
20260503T06Z_MSC_RDPS_GeopotentialHeight_IsbL-0175_RLatLon0.09_PT028H.grib2 2026-05-03 08:52 237K
20260503T06Z_MSC_RDPS_GeopotentialHeight_IsbL-0200_RLatLon0.09_PT028H.grib2 2026-05-03 08:52 239K
20260503T06Z_MSC_RDPS_GeopotentialHeight_IsbL-0225_RLatLon0.09_PT028H.grib2 2026-05-03 08:52 240K
20260503T06Z_MSC_RDPS_GeopotentialHeight_IsbL-0250_RLatLon0.09_PT028H.grib2 2026-05-03 08:52 241K
20260503T06Z_MSC_RDPS_GeopotentialHeight_IsbL-0275_RLatLon0.09_PT028H.grib2 2026-05-03 08:52 240K
20260503T06Z_MSC_RDPS_GeopotentialHeight_IsbL-0300_RLatLon0.09_PT028H.grib2 2026-05-03 08:52 240K
20260503T06Z_MSC_RDPS_GeopotentialHeight_IsbL-0350_RLatLon0.09_PT028H.grib2 2026-05-03 08:52 236K
20260503T06Z_MSC_RDPS_GeopotentialHeight_IsbL-0400_RLatLon0.09_PT028H.grib2 2026-05-03 08:52 307K
20260503T06Z_MSC_RDPS_GeopotentialHeight_IsbL-0450_RLatLon0.09_PT028H.grib2 2026-05-03 08:52 303K
20260503T06Z_MSC_RDPS_GeopotentialHeight_IsbL-0500_RLatLon0.09_PT028H.grib2 2026-05-03 08:52 298K
20260503T06Z_MSC_RDPS_GeopotentialHeight_IsbL-0550_RLatLon0.09_PT028H.grib2 2026-05-03 08:52 294K
20260503T06Z_MSC_RDPS_GeopotentialHeight_IsbL-0600_RLatLon0.09_PT028H.grib2 2026-05-03 08:52 290K
20260503T06Z_MSC_RDPS_GeopotentialHeight_IsbL-0650_RLatLon0.09_PT028H.grib2 2026-05-03 08:52 260K
20260503T06Z_MSC_RDPS_GeopotentialHeight_IsbL-0700_RLatLon0.09_PT028H.grib2 2026-05-03 08:52 258K
20260503T06Z_MSC_RDPS_GeopotentialHeight_IsbL-0750_RLatLon0.09_PT028H.grib2 2026-05-03 08:52 345K
20260503T06Z_MSC_RDPS_GeopotentialHeight_IsbL-0800_RLatLon0.09_PT028H.grib2 2026-05-03 08:52 354K
20260503T06Z_MSC_RDPS_GeopotentialHeight_IsbL-0850_RLatLon0.09_PT028H.grib2 2026-05-03 08:52 365K
20260503T06Z_MSC_RDPS_GeopotentialHeight_IsbL-0875_RLatLon0.09_PT028H.grib2 2026-05-03 08:52 367K
20260503T06Z_MSC_RDPS_GeopotentialHeight_IsbL-0900_RLatLon0.09_PT028H.grib2 2026-05-03 08:52 370K
20260503T06Z_MSC_RDPS_GeopotentialHeight_IsbL-0925_RLatLon0.09_PT028H.grib2 2026-05-03 08:52 372K
20260503T06Z_MSC_RDPS_GeopotentialHeight_IsbL-0950_RLatLon0.09_PT028H.grib2 2026-05-03 08:52 374K
20260503T06Z_MSC_RDPS_GeopotentialHeight_IsbL-0970_RLatLon0.09_PT028H.grib2 2026-05-03 08:52 291K
20260503T06Z_MSC_RDPS_GeopotentialHeight_IsbL-0985_RLatLon0.09_PT028H.grib2 2026-05-03 08:52 297K
20260503T06Z_MSC_RDPS_GeopotentialHeight_IsbL-1000_RLatLon0.09_PT028H.grib2 2026-05-03 08:52 306K
20260503T06Z_MSC_RDPS_GeopotentialHeight_IsbL-1015_RLatLon0.09_PT028H.grib2 2026-05-03 08:52 318K
20260503T06Z_MSC_RDPS_Humidex_Sfc_RLatLon0.09_PT028H.grib2 2026-05-03 08:52 2.4M
20260503T06Z_MSC_RDPS_IcePellets-Accum1h_Sfc_RLatLon0.09_PT028H.grib2 2026-05-03 08:52 3.3K
20260503T06Z_MSC_RDPS_IcePellets-Accum_Sfc_RLatLon0.09_PT028H.grib2 2026-05-03 08:52 11K
20260503T06Z_MSC_RDPS_KIndex_Sfc_RLatLon0.09_PT028H.grib2 2026-05-03 08:52 2.5M
20260503T06Z_MSC_RDPS_LatentHeatNetFlux_Sfc_RLatLon0.09_PT028H.grib2 2026-05-03 08:52 420K
20260503T06Z_MSC_RDPS_LiftedIndex-MU-VT_IsbL-0500_RLatLon0.09_PT028H.grib2 2026-05-03 08:52 2.4M
20260503T06Z_MSC_RDPS_NetLongwaveRadiationFlux-Accum_Sfc_RLatLon0.09_PT028H.grib2 2026-05-03 08:52 611K
20260503T06Z_MSC_RDPS_NetShortwaveRadiationFlux-Accum_Sfc_RLatLon0.09_PT028H.grib2 2026-05-03 08:52 645K
20260503T06Z_MSC_RDPS_PlanetaryBoundaryLayerHeight_Sfc_RLatLon0.09_PT028H.grib2 2026-05-03 08:52 1.1M
20260503T06Z_MSC_RDPS_Precip-Accum1h_Sfc_RLatLon0.09_PT028H.grib2 2026-05-03 08:52 1.3M
20260503T06Z_MSC_RDPS_Precip-Accum_Sfc_RLatLon0.09_PT028H.grib2 2026-05-03 08:52 1.9M
20260503T06Z_MSC_RDPS_PrecipRate_Sfc_RLatLon0.09_PT028H.grib2 2026-05-03 08:52 190K
20260503T06Z_MSC_RDPS_PrecipType-Instant_Sfc_RLatLon0.09_PT028H.grib2 2026-05-03 08:52 624K
20260503T06Z_MSC_RDPS_Pressure-Trend3h_Sfc_RLatLon0.09_PT028H.grib2 2026-05-03 08:52 1.2M
20260503T06Z_MSC_RDPS_Pressure_MSL_RLatLon0.09_PT028H.grib2 2026-05-03 08:52 329K
20260503T06Z_MSC_RDPS_Pressure_PVU-1.5_RLatLon0.09_PT028H.grib2 2026-05-03 08:52 2.5M
20260503T06Z_MSC_RDPS_Pressure_PVU-1_RLatLon0.09_PT028H.grib2 2026-05-03 08:52 2.4M
20260503T06Z_MSC_RDPS_Pressure_PVU-2_RLatLon0.09_PT028H.grib2 2026-05-03 08:52 2.4M
20260503T06Z_MSC_RDPS_Pressure_Sfc_RLatLon0.09_PT028H.grib2 2026-05-03 08:52 500K
20260503T06Z_MSC_RDPS_RadiativeTemp_Sfc_RLatLon0.09_PT028H.grib2 2026-05-03 08:52 305K
20260503T06Z_MSC_RDPS_Rain-Accum1h_Sfc_RLatLon0.09_PT028H.grib2 2026-05-03 08:52 665K
20260503T06Z_MSC_RDPS_Rain-Accum_Sfc_RLatLon0.09_PT028H.grib2 2026-05-03 08:52 1.5M
20260503T06Z_MSC_RDPS_RelativeHumidity_AGL-2m_RLatLon0.09_PT028H.grib2 2026-05-03 08:52 1.0M
20260503T06Z_MSC_RDPS_RelativeHumidity_IsbL-0010_RLatLon0.09_PT028H.grib2 2026-05-03 08:52 533K
20260503T06Z_MSC_RDPS_RelativeHumidity_IsbL-0020_RLatLon0.09_PT028H.grib2 2026-05-03 08:52 673K
20260503T06Z_MSC_RDPS_RelativeHumidity_IsbL-0030_RLatLon0.09_PT028H.grib2 2026-05-03 08:52 604K
20260503T06Z_MSC_RDPS_RelativeHumidity_IsbL-0050_RLatLon0.09_PT028H.grib2 2026-05-03 08:52 262K
20260503T06Z_MSC_RDPS_RelativeHumidity_IsbL-0100_RLatLon0.09_PT028H.grib2 2026-05-03 08:52 283K
20260503T06Z_MSC_RDPS_RelativeHumidity_IsbL-0150_RLatLon0.09_PT028H.grib2 2026-05-03 08:52 410K
20260503T06Z_MSC_RDPS_RelativeHumidity_IsbL-0175_RLatLon0.09_PT028H.grib2 2026-05-03 08:52 472K
20260503T06Z_MSC_RDPS_RelativeHumidity_IsbL-0200_RLatLon0.09_PT028H.grib2 2026-05-03 08:52 555K
20260503T06Z_MSC_RDPS_RelativeHumidity_IsbL-0225_RLatLon0.09_PT028H.grib2 2026-05-03 08:52 630K
20260503T06Z_MSC_RDPS_RelativeHumidity_IsbL-0250_RLatLon0.09_PT028H.grib2 2026-05-03 08:52 700K
20260503T06Z_MSC_RDPS_RelativeHumidity_IsbL-0275_RLatLon0.09_PT028H.grib2 2026-05-03 08:52 725K
20260503T06Z_MSC_RDPS_RelativeHumidity_IsbL-0300_RLatLon0.09_PT028H.grib2 2026-05-03 08:52 765K
20260503T06Z_MSC_RDPS_RelativeHumidity_IsbL-0350_RLatLon0.09_PT028H.grib2 2026-05-03 08:52 789K
20260503T06Z_MSC_RDPS_RelativeHumidity_IsbL-0400_RLatLon0.09_PT028H.grib2 2026-05-03 08:52 796K
20260503T06Z_MSC_RDPS_RelativeHumidity_IsbL-0450_RLatLon0.09_PT028H.grib2 2026-05-03 08:52 796K
20260503T06Z_MSC_RDPS_RelativeHumidity_IsbL-0500_RLatLon0.09_PT028H.grib2 2026-05-03 08:52 801K
20260503T06Z_MSC_RDPS_RelativeHumidity_IsbL-0550_RLatLon0.09_PT028H.grib2 2026-05-03 08:52 816K
20260503T06Z_MSC_RDPS_RelativeHumidity_IsbL-0600_RLatLon0.09_PT028H.grib2 2026-05-03 08:52 838K
20260503T06Z_MSC_RDPS_RelativeHumidity_IsbL-0650_RLatLon0.09_PT028H.grib2 2026-05-03 08:52 852K
20260503T06Z_MSC_RDPS_RelativeHumidity_IsbL-0700_RLatLon0.09_PT028H.grib2 2026-05-03 08:52 872K
20260503T06Z_MSC_RDPS_RelativeHumidity_IsbL-0750_RLatLon0.09_PT028H.grib2 2026-05-03 08:52 920K
20260503T06Z_MSC_RDPS_RelativeHumidity_IsbL-0800_RLatLon0.09_PT028H.grib2 2026-05-03 08:52 1.0M
20260503T06Z_MSC_RDPS_RelativeHumidity_IsbL-0850_RLatLon0.09_PT028H.grib2 2026-05-03 08:52 1.0M
20260503T06Z_MSC_RDPS_RelativeHumidity_IsbL-0875_RLatLon0.09_PT028H.grib2 2026-05-03 08:52 1.1M
20260503T06Z_MSC_RDPS_RelativeHumidity_IsbL-0900_RLatLon0.09_PT028H.grib2 2026-05-03 08:52 1.1M
20260503T06Z_MSC_RDPS_RelativeHumidity_IsbL-0925_RLatLon0.09_PT028H.grib2 2026-05-03 08:52 1.1M
20260503T06Z_MSC_RDPS_RelativeHumidity_IsbL-0950_RLatLon0.09_PT028H.grib2 2026-05-03 08:52 1.1M
20260503T06Z_MSC_RDPS_RelativeHumidity_IsbL-0970_RLatLon0.09_PT028H.grib2 2026-05-03 08:52 1.1M
20260503T06Z_MSC_RDPS_RelativeHumidity_IsbL-0985_RLatLon0.09_PT028H.grib2 2026-05-03 08:52 1.0M
20260503T06Z_MSC_RDPS_RelativeHumidity_IsbL-1000_RLatLon0.09_PT028H.grib2 2026-05-03 08:52 1.0M
20260503T06Z_MSC_RDPS_RelativeHumidity_IsbL-1015_RLatLon0.09_PT028H.grib2 2026-05-03 08:52 1.0M
20260503T06Z_MSC_RDPS_Runoff-Accum_Sfc_RLatLon0.09_PT028H.grib2 2026-05-03 08:52 55K
20260503T06Z_MSC_RDPS_SWEATIndex_Sfc_RLatLon0.09_PT028H.grib2 2026-05-03 08:52 2.6M
20260503T06Z_MSC_RDPS_SeeingIndex_EAtm_RLatLon0.09_PT028H.grib2 2026-05-03 08:52 1.1M
20260503T06Z_MSC_RDPS_SensibleHeatNetFlux_Sfc_RLatLon0.09_PT028H.grib2 2026-05-03 08:52 301K
20260503T06Z_MSC_RDPS_ShowalterIndex_IsbL-0500_RLatLon0.09_PT028H.grib2 2026-05-03 08:52 2.6M
20260503T06Z_MSC_RDPS_SkyTransparencyIndex_EAtm_RLatLon0.09_PT028H.grib2 2026-05-03 08:52 722K
20260503T06Z_MSC_RDPS_Snow-Accum1h_Sfc_RLatLon0.09_PT028H.grib2 2026-05-03 08:52 537K
20260503T06Z_MSC_RDPS_Snow-Accum_Sfc_RLatLon0.09_PT028H.grib2 2026-05-03 08:52 754K
20260503T06Z_MSC_RDPS_SnowDensity_Sfc_RLatLon0.09_PT028H.grib2 2026-05-03 08:52 169K
20260503T06Z_MSC_RDPS_SnowDepth_Sfc_RLatLon0.09_PT028H.grib2 2026-05-03 08:52 650K
20260503T06Z_MSC_RDPS_SoilTemp_DBS-0to10cm_RLatLon0.09_PT028H.grib2 2026-05-03 08:52 227K
20260503T06Z_MSC_RDPS_SoilTemp_Sfc_RLatLon0.09_PT028H.grib2 2026-05-03 08:52 267K
20260503T06Z_MSC_RDPS_SoilVolumetricIceContent_Sfc_RLatLon0.09_PT028H.grib2 2026-05-03 08:52 155K
20260503T06Z_MSC_RDPS_SoilVolumetricWaterContent_DBS-0to10cm_RLatLon0.09_PT028H.grib2 2026-05-03 08:52 274K
20260503T06Z_MSC_RDPS_SoilVolumetricWaterContent_DBS-0to1cm_RLatLon0.09_PT028H.grib2 2026-05-03 08:52 339K
20260503T06Z_MSC_RDPS_SpecificHumidity_AGL-120m_RLatLon0.09_PT028H.grib2 2026-05-03 08:52 493K
20260503T06Z_MSC_RDPS_SpecificHumidity_AGL-2m_RLatLon0.09_PT028H.grib2 2026-05-03 08:52 663K
20260503T06Z_MSC_RDPS_SpecificHumidity_AGL-40m_RLatLon0.09_PT028H.grib2 2026-05-03 08:52 499K
20260503T06Z_MSC_RDPS_SpecificHumidity_AGL-80m_RLatLon0.09_PT028H.grib2 2026-05-03 08:52 495K
20260503T06Z_MSC_RDPS_SpecificHumidity_IsbL-0001_RLatLon0.09_PT028H.grib2 2026-05-03 08:52 351K
20260503T06Z_MSC_RDPS_SpecificHumidity_IsbL-0005_RLatLon0.09_PT028H.grib2 2026-05-03 08:52 371K
20260503T06Z_MSC_RDPS_SpecificHumidity_IsbL-0010_RLatLon0.09_PT028H.grib2 2026-05-03 08:52 403K
20260503T06Z_MSC_RDPS_SpecificHumidity_IsbL-0020_RLatLon0.09_PT028H.grib2 2026-05-03 08:52 383K
20260503T06Z_MSC_RDPS_SpecificHumidity_IsbL-0030_RLatLon0.09_PT028H.grib2 2026-05-03 08:52 376K
20260503T06Z_MSC_RDPS_SpecificHumidity_IsbL-0050_RLatLon0.09_PT028H.grib2 2026-05-03 08:52 489K
20260503T06Z_MSC_RDPS_SpecificHumidity_IsbL-0100_RLatLon0.09_PT028H.grib2 2026-05-03 08:52 540K
20260503T06Z_MSC_RDPS_SpecificHumidity_IsbL-0150_RLatLon0.09_PT028H.grib2 2026-05-03 08:52 448K
20260503T06Z_MSC_RDPS_SpecificHumidity_IsbL-0175_RLatLon0.09_PT028H.grib2 2026-05-03 08:52 435K
20260503T06Z_MSC_RDPS_SpecificHumidity_IsbL-0200_RLatLon0.09_PT028H.grib2 2026-05-03 08:52 459K
20260503T06Z_MSC_RDPS_SpecificHumidity_IsbL-0225_RLatLon0.09_PT028H.grib2 2026-05-03 08:52 466K
20260503T06Z_MSC_RDPS_SpecificHumidity_IsbL-0250_RLatLon0.09_PT028H.grib2 2026-05-03 08:52 574K
20260503T06Z_MSC_RDPS_SpecificHumidity_IsbL-0275_RLatLon0.09_PT028H.grib2 2026-05-03 08:52 490K
20260503T06Z_MSC_RDPS_SpecificHumidity_IsbL-0300_RLatLon0.09_PT028H.grib2 2026-05-03 08:52 561K
20260503T06Z_MSC_RDPS_SpecificHumidity_IsbL-0350_RLatLon0.09_PT028H.grib2 2026-05-03 08:52 556K
20260503T06Z_MSC_RDPS_SpecificHumidity_IsbL-0400_RLatLon0.09_PT028H.grib2 2026-05-03 08:52 531K
20260503T06Z_MSC_RDPS_SpecificHumidity_IsbL-0450_RLatLon0.09_PT028H.grib2 2026-05-03 08:52 576K
20260503T06Z_MSC_RDPS_SpecificHumidity_IsbL-0500_RLatLon0.09_PT028H.grib2 2026-05-03 08:52 511K
20260503T06Z_MSC_RDPS_SpecificHumidity_IsbL-0550_RLatLon0.09_PT028H.grib2 2026-05-03 08:52 582K
20260503T06Z_MSC_RDPS_SpecificHumidity_IsbL-0600_RLatLon0.09_PT028H.grib2 2026-05-03 08:52 633K
20260503T06Z_MSC_RDPS_SpecificHumidity_IsbL-0650_RLatLon0.09_PT028H.grib2 2026-05-03 08:52 551K
20260503T06Z_MSC_RDPS_SpecificHumidity_IsbL-0700_RLatLon0.09_PT028H.grib2 2026-05-03 08:52 591K
20260503T06Z_MSC_RDPS_SpecificHumidity_IsbL-0750_RLatLon0.09_PT028H.grib2 2026-05-03 08:52 644K
20260503T06Z_MSC_RDPS_SpecificHumidity_IsbL-0800_RLatLon0.09_PT028H.grib2 2026-05-03 08:52 723K
20260503T06Z_MSC_RDPS_SpecificHumidity_IsbL-0850_RLatLon0.09_PT028H.grib2 2026-05-03 08:52 813K
20260503T06Z_MSC_RDPS_SpecificHumidity_IsbL-0875_RLatLon0.09_PT028H.grib2 2026-05-03 08:52 836K
20260503T06Z_MSC_RDPS_SpecificHumidity_IsbL-0900_RLatLon0.09_PT028H.grib2 2026-05-03 08:52 842K
20260503T06Z_MSC_RDPS_SpecificHumidity_IsbL-0925_RLatLon0.09_PT028H.grib2 2026-05-03 08:52 840K
20260503T06Z_MSC_RDPS_SpecificHumidity_IsbL-0950_RLatLon0.09_PT028H.grib2 2026-05-03 08:52 702K
20260503T06Z_MSC_RDPS_SpecificHumidity_IsbL-0970_RLatLon0.09_PT028H.grib2 2026-05-03 08:52 696K
20260503T06Z_MSC_RDPS_SpecificHumidity_IsbL-0985_RLatLon0.09_PT028H.grib2 2026-05-03 08:52 689K
20260503T06Z_MSC_RDPS_SpecificHumidity_IsbL-1000_RLatLon0.09_PT028H.grib2 2026-05-03 08:52 683K
20260503T06Z_MSC_RDPS_SpecificHumidity_IsbL-1015_RLatLon0.09_PT028H.grib2 2026-05-03 08:52 675K
20260503T06Z_MSC_RDPS_SpecificHumidity_Sfc_RLatLon0.09_PT028H.grib2 2026-05-03 08:52 294K
20260503T06Z_MSC_RDPS_StormRelativeHelicity_EtaL-10000_RLatLon0.09_PT028H.grib2 2026-05-03 08:52 1.1M
20260503T06Z_MSC_RDPS_StormSeverityIndex_EtaL-10000_RLatLon0.09_PT028H.grib2 2026-05-03 08:52 1.2M
20260503T06Z_MSC_RDPS_Thickness_IsbL-0850to0700_RLatLon0.09_PT028H.grib2 2026-05-03 08:52 178K
20260503T06Z_MSC_RDPS_Thickness_IsbL-1000to0500_RLatLon0.09_PT028H.grib2 2026-05-03 08:52 198K
20260503T06Z_MSC_RDPS_Thickness_IsbL-1000to0850_RLatLon0.09_PT028H.grib2 2026-05-03 08:52 263K
20260503T06Z_MSC_RDPS_TotalCloudCover_Sfc_RLatLon0.09_PT028H.grib2 2026-05-03 08:52 680K
20260503T06Z_MSC_RDPS_TotalTotalsIndex_Sfc_RLatLon0.09_PT028H.grib2 2026-05-03 08:52 2.4M
20260503T06Z_MSC_RDPS_UVIndex-ClearSky_Sfc_RLatLon0.09_PT028H.grib2 2026-05-03 08:52 96K
20260503T06Z_MSC_RDPS_UVIndex_Sfc_RLatLon0.09_PT028H.grib2 2026-05-03 08:52 214K
20260503T06Z_MSC_RDPS_UpwardLongwaveRadiationFlux_NTAtm_RLatLon0.09_PT028H.grib2 2026-05-03 08:52 499K
20260503T06Z_MSC_RDPS_UpwardShortwaveRadiationFlux_NTAtm_RLatLon0.09_PT028H.grib2 2026-05-03 08:52 209K
20260503T06Z_MSC_RDPS_VerticalVelocity_IsbL-0250_RLatLon0.09_PT028H.grib2 2026-05-03 08:52 446K
20260503T06Z_MSC_RDPS_VerticalVelocity_IsbL-0500_RLatLon0.09_PT028H.grib2 2026-05-03 08:52 695K
20260503T06Z_MSC_RDPS_VerticalVelocity_IsbL-0700_RLatLon0.09_PT028H.grib2 2026-05-03 08:52 608K
20260503T06Z_MSC_RDPS_VerticalVelocity_IsbL-0850_RLatLon0.09_PT028H.grib2 2026-05-03 08:52 718K
20260503T06Z_MSC_RDPS_VerticalWindShear_EtaL-6500_RLatLon0.09_PT028H.grib2 2026-05-03 08:52 1.2M
20260503T06Z_MSC_RDPS_WindChill_Sfc_RLatLon0.09_PT028H.grib2 2026-05-03 08:52 1.2M
20260503T06Z_MSC_RDPS_WindDir_AGL-10m_RLatLon0.09_PT028H.grib2 2026-05-03 08:52 1.0M
20260503T06Z_MSC_RDPS_WindDir_AGL-120m_RLatLon0.09_PT028H.grib2 2026-05-03 08:52 617K
20260503T06Z_MSC_RDPS_WindDir_AGL-40m_RLatLon0.09_PT028H.grib2 2026-05-03 08:52 652K
20260503T06Z_MSC_RDPS_WindDir_AGL-80m_RLatLon0.09_PT028H.grib2 2026-05-03 08:52 631K
20260503T06Z_MSC_RDPS_WindDir_IsbL-0001_RLatLon0.09_PT028H.grib2 2026-05-03 08:52 307K
20260503T06Z_MSC_RDPS_WindDir_IsbL-0005_RLatLon0.09_PT028H.grib2 2026-05-03 08:52 385K
20260503T06Z_MSC_RDPS_WindDir_IsbL-0010_RLatLon0.09_PT028H.grib2 2026-05-03 08:52 390K
20260503T06Z_MSC_RDPS_WindDir_IsbL-0020_RLatLon0.09_PT028H.grib2 2026-05-03 08:52 421K
20260503T06Z_MSC_RDPS_WindDir_IsbL-0030_RLatLon0.09_PT028H.grib2 2026-05-03 08:52 424K
20260503T06Z_MSC_RDPS_WindDir_IsbL-0050_RLatLon0.09_PT028H.grib2 2026-05-03 08:52 424K
20260503T06Z_MSC_RDPS_WindDir_IsbL-0100_RLatLon0.09_PT028H.grib2 2026-05-03 08:52 412K
20260503T06Z_MSC_RDPS_WindDir_IsbL-0150_RLatLon0.09_PT028H.grib2 2026-05-03 08:52 423K
20260503T06Z_MSC_RDPS_WindDir_IsbL-0175_RLatLon0.09_PT028H.grib2 2026-05-03 08:52 438K
20260503T06Z_MSC_RDPS_WindDir_IsbL-0200_RLatLon0.09_PT028H.grib2 2026-05-03 08:52 454K
20260503T06Z_MSC_RDPS_WindDir_IsbL-0225_RLatLon0.09_PT028H.grib2 2026-05-03 08:52 458K
20260503T06Z_MSC_RDPS_WindDir_IsbL-0250_RLatLon0.09_PT028H.grib2 2026-05-03 08:52 459K
20260503T06Z_MSC_RDPS_WindDir_IsbL-0275_RLatLon0.09_PT028H.grib2 2026-05-03 08:52 475K
20260503T06Z_MSC_RDPS_WindDir_IsbL-0300_RLatLon0.09_PT028H.grib2 2026-05-03 08:52 470K
20260503T06Z_MSC_RDPS_WindDir_IsbL-0350_RLatLon0.09_PT028H.grib2 2026-05-03 08:52 496K
20260503T06Z_MSC_RDPS_WindDir_IsbL-0400_RLatLon0.09_PT028H.grib2 2026-05-03 08:52 521K
20260503T06Z_MSC_RDPS_WindDir_IsbL-0450_RLatLon0.09_PT028H.grib2 2026-05-03 08:52 532K
20260503T06Z_MSC_RDPS_WindDir_IsbL-0500_RLatLon0.09_PT028H.grib2 2026-05-03 08:52 536K
20260503T06Z_MSC_RDPS_WindDir_IsbL-0550_RLatLon0.09_PT028H.grib2 2026-05-03 08:52 551K
20260503T06Z_MSC_RDPS_WindDir_IsbL-0600_RLatLon0.09_PT028H.grib2 2026-05-03 08:52 576K
20260503T06Z_MSC_RDPS_WindDir_IsbL-0650_RLatLon0.09_PT028H.grib2 2026-05-03 08:52 612K
20260503T06Z_MSC_RDPS_WindDir_IsbL-0700_RLatLon0.09_PT028H.grib2 2026-05-03 08:52 654K
20260503T06Z_MSC_RDPS_WindDir_IsbL-0750_RLatLon0.09_PT028H.grib2 2026-05-03 08:52 708K
20260503T06Z_MSC_RDPS_WindDir_IsbL-0800_RLatLon0.09_PT028H.grib2 2026-05-03 08:52 781K
20260503T06Z_MSC_RDPS_WindDir_IsbL-0850_RLatLon0.09_PT028H.grib2 2026-05-03 08:52 875K
20260503T06Z_MSC_RDPS_WindDir_IsbL-0875_RLatLon0.09_PT028H.grib2 2026-05-03 08:52 905K
20260503T06Z_MSC_RDPS_WindDir_IsbL-0900_RLatLon0.09_PT028H.grib2 2026-05-03 08:52 921K
20260503T06Z_MSC_RDPS_WindDir_IsbL-0925_RLatLon0.09_PT028H.grib2 2026-05-03 08:52 929K
20260503T06Z_MSC_RDPS_WindDir_IsbL-0950_RLatLon0.09_PT028H.grib2 2026-05-03 08:52 927K
20260503T06Z_MSC_RDPS_WindDir_IsbL-0970_RLatLon0.09_PT028H.grib2 2026-05-03 08:52 933K
20260503T06Z_MSC_RDPS_WindDir_IsbL-0985_RLatLon0.09_PT028H.grib2 2026-05-03 08:52 943K
20260503T06Z_MSC_RDPS_WindDir_IsbL-1000_RLatLon0.09_PT028H.grib2 2026-05-03 08:52 963K
20260503T06Z_MSC_RDPS_WindDir_IsbL-1015_RLatLon0.09_PT028H.grib2 2026-05-03 08:52 1.0M
20260503T06Z_MSC_RDPS_WindGust-Max_AGL-10m_RLatLon0.09_PT028H.grib2 2026-05-03 08:52 1.0M
20260503T06Z_MSC_RDPS_WindGust-Min_AGL-10m_RLatLon0.09_PT028H.grib2 2026-05-03 08:52 1.0M
20260503T06Z_MSC_RDPS_WindGust_AGL-10m_RLatLon0.09_PT028H.grib2 2026-05-03 08:52 1.0M
20260503T06Z_MSC_RDPS_WindSpeed_AGL-10m_RLatLon0.09_PT028H.grib2 2026-05-03 08:52 856K
20260503T06Z_MSC_RDPS_WindSpeed_AGL-120m_RLatLon0.09_PT028H.grib2 2026-05-03 08:52 551K
20260503T06Z_MSC_RDPS_WindSpeed_AGL-40m_RLatLon0.09_PT028H.grib2 2026-05-03 08:52 555K
20260503T06Z_MSC_RDPS_WindSpeed_AGL-80m_RLatLon0.09_PT028H.grib2 2026-05-03 08:52 553K
20260503T06Z_MSC_RDPS_WindSpeed_IsbL-0001_RLatLon0.09_PT028H.grib2 2026-05-03 08:52 253K
20260503T06Z_MSC_RDPS_WindSpeed_IsbL-0005_RLatLon0.09_PT028H.grib2 2026-05-03 08:52 385K
20260503T06Z_MSC_RDPS_WindSpeed_IsbL-0010_RLatLon0.09_PT028H.grib2 2026-05-03 08:52 366K
20260503T06Z_MSC_RDPS_WindSpeed_IsbL-0020_RLatLon0.09_PT028H.grib2 2026-05-03 08:52 422K
20260503T06Z_MSC_RDPS_WindSpeed_IsbL-0030_RLatLon0.09_PT028H.grib2 2026-05-03 08:52 325K
20260503T06Z_MSC_RDPS_WindSpeed_IsbL-0050_RLatLon0.09_PT028H.grib2 2026-05-03 08:52 355K
20260503T06Z_MSC_RDPS_WindSpeed_IsbL-0100_RLatLon0.09_PT028H.grib2 2026-05-03 08:52 486K
20260503T06Z_MSC_RDPS_WindSpeed_IsbL-0150_RLatLon0.09_PT028H.grib2 2026-05-03 08:52 388K
20260503T06Z_MSC_RDPS_WindSpeed_IsbL-0175_RLatLon0.09_PT028H.grib2 2026-05-03 08:52 433K
20260503T06Z_MSC_RDPS_WindSpeed_IsbL-0200_RLatLon0.09_PT028H.grib2 2026-05-03 08:52 446K
20260503T06Z_MSC_RDPS_WindSpeed_IsbL-0225_RLatLon0.09_PT028H.grib2 2026-05-03 08:52 454K
20260503T06Z_MSC_RDPS_WindSpeed_IsbL-0250_RLatLon0.09_PT028H.grib2 2026-05-03 08:52 457K
20260503T06Z_MSC_RDPS_WindSpeed_IsbL-0275_RLatLon0.09_PT028H.grib2 2026-05-03 08:52 476K
20260503T06Z_MSC_RDPS_WindSpeed_IsbL-0300_RLatLon0.09_PT028H.grib2 2026-05-03 08:52 473K
20260503T06Z_MSC_RDPS_WindSpeed_IsbL-0350_RLatLon0.09_PT028H.grib2 2026-05-03 08:52 483K
20260503T06Z_MSC_RDPS_WindSpeed_IsbL-0400_RLatLon0.09_PT028H.grib2 2026-05-03 08:52 488K
20260503T06Z_MSC_RDPS_WindSpeed_IsbL-0450_RLatLon0.09_PT028H.grib2 2026-05-03 08:52 475K
20260503T06Z_MSC_RDPS_WindSpeed_IsbL-0500_RLatLon0.09_PT028H.grib2 2026-05-03 08:52 472K
20260503T06Z_MSC_RDPS_WindSpeed_IsbL-0550_RLatLon0.09_PT028H.grib2 2026-05-03 08:52 588K
20260503T06Z_MSC_RDPS_WindSpeed_IsbL-0600_RLatLon0.09_PT028H.grib2 2026-05-03 08:52 597K
20260503T06Z_MSC_RDPS_WindSpeed_IsbL-0650_RLatLon0.09_PT028H.grib2 2026-05-03 08:52 618K
20260503T06Z_MSC_RDPS_WindSpeed_IsbL-0700_RLatLon0.09_PT028H.grib2 2026-05-03 08:52 640K
20260503T06Z_MSC_RDPS_WindSpeed_IsbL-0750_RLatLon0.09_PT028H.grib2 2026-05-03 08:52 672K
20260503T06Z_MSC_RDPS_WindSpeed_IsbL-0800_RLatLon0.09_PT028H.grib2 2026-05-03 08:52 726K
20260503T06Z_MSC_RDPS_WindSpeed_IsbL-0850_RLatLon0.09_PT028H.grib2 2026-05-03 08:52 836K
20260503T06Z_MSC_RDPS_WindSpeed_IsbL-0875_RLatLon0.09_PT028H.grib2 2026-05-03 08:52 858K
20260503T06Z_MSC_RDPS_WindSpeed_IsbL-0900_RLatLon0.09_PT028H.grib2 2026-05-03 08:52 869K
20260503T06Z_MSC_RDPS_WindSpeed_IsbL-0925_RLatLon0.09_PT028H.grib2 2026-05-03 08:52 879K
20260503T06Z_MSC_RDPS_WindSpeed_IsbL-0950_RLatLon0.09_PT028H.grib2 2026-05-03 08:52 878K
20260503T06Z_MSC_RDPS_WindSpeed_IsbL-0970_RLatLon0.09_PT028H.grib2 2026-05-03 08:52 873K
20260503T06Z_MSC_RDPS_WindSpeed_IsbL-0985_RLatLon0.09_PT028H.grib2 2026-05-03 08:52 868K
20260503T06Z_MSC_RDPS_WindSpeed_IsbL-1000_RLatLon0.09_PT028H.grib2 2026-05-03 08:52 864K
20260503T06Z_MSC_RDPS_WindSpeed_IsbL-1015_RLatLon0.09_PT028H.grib2 2026-05-03 08:52 855K
20260503T06Z_MSC_RDPS_WindU_AGL-10m_RLatLon0.09_PT028H.grib2 2026-05-03 08:52 439K
20260503T06Z_MSC_RDPS_WindU_AGL-120m_RLatLon0.09_PT028H.grib2 2026-05-03 08:52 545K
20260503T06Z_MSC_RDPS_WindU_AGL-40m_RLatLon0.09_PT028H.grib2 2026-05-03 08:52 548K
20260503T06Z_MSC_RDPS_WindU_AGL-80m_RLatLon0.09_PT028H.grib2 2026-05-03 08:52 547K
20260503T06Z_MSC_RDPS_WindU_IsbL-0001_RLatLon0.09_PT028H.grib2 2026-05-03 08:52 293K
20260503T06Z_MSC_RDPS_WindU_IsbL-0005_RLatLon0.09_PT028H.grib2 2026-05-03 08:52 284K
20260503T06Z_MSC_RDPS_WindU_IsbL-0010_RLatLon0.09_PT028H.grib2 2026-05-03 08:52 298K
20260503T06Z_MSC_RDPS_WindU_IsbL-0020_RLatLon0.09_PT028H.grib2 2026-05-03 08:52 355K
20260503T06Z_MSC_RDPS_WindU_IsbL-0030_RLatLon0.09_PT028H.grib2 2026-05-03 08:52 356K
20260503T06Z_MSC_RDPS_WindU_IsbL-0050_RLatLon0.09_PT028H.grib2 2026-05-03 08:52 383K
20260503T06Z_MSC_RDPS_WindU_IsbL-0100_RLatLon0.09_PT028H.grib2 2026-05-03 08:52 439K
20260503T06Z_MSC_RDPS_WindU_IsbL-0150_RLatLon0.09_PT028H.grib2 2026-05-03 08:52 403K
20260503T06Z_MSC_RDPS_WindU_IsbL-0175_RLatLon0.09_PT028H.grib2 2026-05-03 08:52 425K
20260503T06Z_MSC_RDPS_WindU_IsbL-0200_RLatLon0.09_PT028H.grib2 2026-05-03 08:52 341K
20260503T06Z_MSC_RDPS_WindU_IsbL-0225_RLatLon0.09_PT028H.grib2 2026-05-03 08:52 346K
20260503T06Z_MSC_RDPS_WindU_IsbL-0250_RLatLon0.09_PT028H.grib2 2026-05-03 08:52 346K
20260503T06Z_MSC_RDPS_WindU_IsbL-0275_RLatLon0.09_PT028H.grib2 2026-05-03 08:52 362K
20260503T06Z_MSC_RDPS_WindU_IsbL-0300_RLatLon0.09_PT028H.grib2 2026-05-03 08:52 358K
20260503T06Z_MSC_RDPS_WindU_IsbL-0350_RLatLon0.09_PT028H.grib2 2026-05-03 08:52 472K
20260503T06Z_MSC_RDPS_WindU_IsbL-0400_RLatLon0.09_PT028H.grib2 2026-05-03 08:52 478K
20260503T06Z_MSC_RDPS_WindU_IsbL-0450_RLatLon0.09_PT028H.grib2 2026-05-03 08:52 480K
20260503T06Z_MSC_RDPS_WindU_IsbL-0500_RLatLon0.09_PT028H.grib2 2026-05-03 08:52 478K
20260503T06Z_MSC_RDPS_WindU_IsbL-0550_RLatLon0.09_PT028H.grib2 2026-05-03 08:52 477K
20260503T06Z_MSC_RDPS_WindU_IsbL-0600_RLatLon0.09_PT028H.grib2 2026-05-03 08:52 485K
20260503T06Z_MSC_RDPS_WindU_IsbL-0650_RLatLon0.09_PT028H.grib2 2026-05-03 08:52 487K
20260503T06Z_MSC_RDPS_WindU_IsbL-0700_RLatLon0.09_PT028H.grib2 2026-05-03 08:52 507K
20260503T06Z_MSC_RDPS_WindU_IsbL-0750_RLatLon0.09_PT028H.grib2 2026-05-03 08:52 536K
20260503T06Z_MSC_RDPS_WindU_IsbL-0800_RLatLon0.09_PT028H.grib2 2026-05-03 08:52 584K
20260503T06Z_MSC_RDPS_WindU_IsbL-0850_RLatLon0.09_PT028H.grib2 2026-05-03 08:52 643K
20260503T06Z_MSC_RDPS_WindU_IsbL-0875_RLatLon0.09_PT028H.grib2 2026-05-03 08:52 661K
20260503T06Z_MSC_RDPS_WindU_IsbL-0900_RLatLon0.09_PT028H.grib2 2026-05-03 08:52 668K
20260503T06Z_MSC_RDPS_WindU_IsbL-0925_RLatLon0.09_PT028H.grib2 2026-05-03 08:52 673K
20260503T06Z_MSC_RDPS_WindU_IsbL-0950_RLatLon0.09_PT028H.grib2 2026-05-03 08:52 669K
20260503T06Z_MSC_RDPS_WindU_IsbL-0970_RLatLon0.09_PT028H.grib2 2026-05-03 08:52 665K
20260503T06Z_MSC_RDPS_WindU_IsbL-0985_RLatLon0.09_PT028H.grib2 2026-05-03 08:52 801K
20260503T06Z_MSC_RDPS_WindU_IsbL-1000_RLatLon0.09_PT028H.grib2 2026-05-03 08:52 798K
20260503T06Z_MSC_RDPS_WindU_IsbL-1015_RLatLon0.09_PT028H.grib2 2026-05-03 08:52 838K
20260503T06Z_MSC_RDPS_WindV_AGL-10m_RLatLon0.09_PT028H.grib2 2026-05-03 08:52 441K
20260503T06Z_MSC_RDPS_WindV_AGL-120m_RLatLon0.09_PT028H.grib2 2026-05-03 08:52 428K
20260503T06Z_MSC_RDPS_WindV_AGL-40m_RLatLon0.09_PT028H.grib2 2026-05-03 08:52 551K
20260503T06Z_MSC_RDPS_WindV_AGL-80m_RLatLon0.09_PT028H.grib2 2026-05-03 08:52 430K
20260503T06Z_MSC_RDPS_WindV_IsbL-0001_RLatLon0.09_PT028H.grib2 2026-05-03 08:52 248K
20260503T06Z_MSC_RDPS_WindV_IsbL-0005_RLatLon0.09_PT028H.grib2 2026-05-03 08:52 287K
20260503T06Z_MSC_RDPS_WindV_IsbL-0010_RLatLon0.09_PT028H.grib2 2026-05-03 08:52 299K
20260503T06Z_MSC_RDPS_WindV_IsbL-0020_RLatLon0.09_PT028H.grib2 2026-05-03 08:52 317K
20260503T06Z_MSC_RDPS_WindV_IsbL-0030_RLatLon0.09_PT028H.grib2 2026-05-03 08:52 318K
20260503T06Z_MSC_RDPS_WindV_IsbL-0050_RLatLon0.09_PT028H.grib2 2026-05-03 08:52 347K
20260503T06Z_MSC_RDPS_WindV_IsbL-0100_RLatLon0.09_PT028H.grib2 2026-05-03 08:52 340K
20260503T06Z_MSC_RDPS_WindV_IsbL-0150_RLatLon0.09_PT028H.grib2 2026-05-03 08:52 402K
20260503T06Z_MSC_RDPS_WindV_IsbL-0175_RLatLon0.09_PT028H.grib2 2026-05-03 08:52 328K
20260503T06Z_MSC_RDPS_WindV_IsbL-0200_RLatLon0.09_PT028H.grib2 2026-05-03 08:52 339K
20260503T06Z_MSC_RDPS_WindV_IsbL-0225_RLatLon0.09_PT028H.grib2 2026-05-03 08:52 370K
20260503T06Z_MSC_RDPS_WindV_IsbL-0250_RLatLon0.09_PT028H.grib2 2026-05-03 08:52 372K
20260503T06Z_MSC_RDPS_WindV_IsbL-0275_RLatLon0.09_PT028H.grib2 2026-05-03 08:52 385K
20260503T06Z_MSC_RDPS_WindV_IsbL-0300_RLatLon0.09_PT028H.grib2 2026-05-03 08:52 382K
20260503T06Z_MSC_RDPS_WindV_IsbL-0350_RLatLon0.09_PT028H.grib2 2026-05-03 08:52 388K
20260503T06Z_MSC_RDPS_WindV_IsbL-0400_RLatLon0.09_PT028H.grib2 2026-05-03 08:52 369K
20260503T06Z_MSC_RDPS_WindV_IsbL-0450_RLatLon0.09_PT028H.grib2 2026-05-03 08:52 371K
20260503T06Z_MSC_RDPS_WindV_IsbL-0500_RLatLon0.09_PT028H.grib2 2026-05-03 08:52 475K
20260503T06Z_MSC_RDPS_WindV_IsbL-0550_RLatLon0.09_PT028H.grib2 2026-05-03 08:52 474K
20260503T06Z_MSC_RDPS_WindV_IsbL-0600_RLatLon0.09_PT028H.grib2 2026-05-03 08:52 481K
20260503T06Z_MSC_RDPS_WindV_IsbL-0650_RLatLon0.09_PT028H.grib2 2026-05-03 08:52 498K
20260503T06Z_MSC_RDPS_WindV_IsbL-0700_RLatLon0.09_PT028H.grib2 2026-05-03 08:52 518K
20260503T06Z_MSC_RDPS_WindV_IsbL-0750_RLatLon0.09_PT028H.grib2 2026-05-03 08:52 545K
20260503T06Z_MSC_RDPS_WindV_IsbL-0800_RLatLon0.09_PT028H.grib2 2026-05-03 08:52 591K
20260503T06Z_MSC_RDPS_WindV_IsbL-0850_RLatLon0.09_PT028H.grib2 2026-05-03 08:52 647K
20260503T06Z_MSC_RDPS_WindV_IsbL-0875_RLatLon0.09_PT028H.grib2 2026-05-03 08:52 666K
20260503T06Z_MSC_RDPS_WindV_IsbL-0900_RLatLon0.09_PT028H.grib2 2026-05-03 08:52 667K
20260503T06Z_MSC_RDPS_WindV_IsbL-0925_RLatLon0.09_PT028H.grib2 2026-05-03 08:52 674K
20260503T06Z_MSC_RDPS_WindV_IsbL-0950_RLatLon0.09_PT028H.grib2 2026-05-03 08:52 671K
20260503T06Z_MSC_RDPS_WindV_IsbL-0970_RLatLon0.09_PT028H.grib2 2026-05-03 08:52 667K
20260503T06Z_MSC_RDPS_WindV_IsbL-0985_RLatLon0.09_PT028H.grib2 2026-05-03 08:52 664K
20260503T06Z_MSC_RDPS_WindV_IsbL-1000_RLatLon0.09_PT028H.grib2 2026-05-03 08:52 801K
20260503T06Z_MSC_RDPS_WindV_IsbL-1015_RLatLon0.09_PT028H.grib2 2026-05-03 08:52 794K